This is the latest recevied weather packets stored in our database for station/object EA1BVF-10. If no packets are shown the sender has not sent any weather packets the latest 10 day(s).
| Time | Temp. | Humidity | Pressure | Rain* | Wind** | Luminosity | Snow |
|---|---|---|---|---|---|---|---|
| 1787843568 | 9.44° C | 94% | 1027 hPa | - | - | - | - |
| 1787841768 | 10° C | 94% | 1027 hPa | - | - | - | - |
| 1787839968 | 10° C | 93% | 1026.9 hPa | - | - | - | - |
| 1787838168 | 9.44° C | 94% | 1026.9 hPa | - | - | - | - |
| 1787836368 | 9.44° C | 91% | 1026.8 hPa | - | - | - | - |
| 1787834568 | 9.44° C | 91% | 1027 hPa | - | - | - | - |
| 1787832768 | 9.44° C | 91% | 1026.7 hPa | - | - | - | - |
| 1787830968 | 10° C | 90% | 1026.4 hPa | - | - | - | - |
| 1787829167 | 10° C | 94% | 1026.7 hPa | - | - | - | - |
| 1787827370 | 9.44° C | 95% | 1026.6 hPa | - | - | - | - |
| 1787825567 | 9.44° C | 95% | 1026.8 hPa | - | - | - | - |
| 1787823767 | 9.44° C | 97% | 1027 hPa | - | - | - | - |
| 1787821967 | 9.44° C | 97% | 1026.7 hPa | - | - | - | - |
| 1787820167 | 9.44° C | 97% | 1026.8 hPa | - | - | - | - |
| 1787818367 | 9.44° C | 97% | 1026.8 hPa | - | - | - | - |
| 1787816567 | 9.44° C | 97% | 1026.6 hPa | - | - | - | - |
| 1787814767 | 8.89° C | 95% | 1026.7 hPa | - | - | - | - |
| 1787768903 | 12.22° C | 97% | 1026.1 hPa | - | - | - | - |
| 1787767103 | 12.22° C | 97% | 1026 hPa | - | - | - | - |
| 1787765303 | 12.22° C | 98% | 1026 hPa | - | - | - | - |
| 1787763503 | 12.22° C | 97% | 1025.9 hPa | - | - | - | - |
| 1787761703 | 12.22° C | 97% | 1025.7 hPa | - | - | - | - |
| 1787759903 | 12.22° C | 96% | 1025.6 hPa | - | - | - | - |
| 1787758102 | 11.67° C | 97% | 1025.6 hPa | - | - | - | - |
| 1787756302 | 11.67° C | 97% | 1025.2 hPa | - | - | - | - |
* Rain since midnight (hover to see other rain measurements)
** Current wind speed in m/s (hover to see current wind gust speed)